User: anonymous   Login
Location: Hylvaty SDH
(49.9612°N, 16.4057°E)
Time: 01:11:58
(UTC+02:00)
Language:

Courier 1B - Orbit

View from above orbital plane
View from above orbital plane
View from above satellite
View from above satellite

Ground track
Ground track

The orbit data is extracted from the following two-line orbital elements,

1    58U 60013A   20224.22213244 +.00000094 +00000-0 +10585-4 0  9999
2    58 028.3261 176.7731 0165052 162.6901 197.9353 13.46323300946004
Epoch (UTC): 11 August 2020 05:19:52
Eccentricity: 0.0165052
inclination: 28.3261°
perigee height: 962 km
apogee height: 1209 km
right ascension of ascending node: 176.7731°
argument of perigee: 162.6901°
revolutions per day: 13.46323300
mean anomaly at epoch: 197.9353°
orbit number at epoch: 94600

The dashed part of the orbit path shows where the satellite is in the earth's shadow,  

DLR